User: anonymous   Login
Location: Unnamed
(48.6007°N, 2.4808°E)
Time: 10:45:40
(UTC+01:00)
Language:

FENGYUN 1C DEB - Orbit

View from above orbital plane
View from above orbital plane
View from above satellite
View from above satellite

Ground track
Ground track

The orbit data is extracted from the following two-line orbital elements,

1 33719U 99025DHG 23341.13343951  .00002132  00000-0  10504-2 0  9990
2 33719  98.8429  32.5052 0031735  39.7943  18.7454 14.18350838815527
Epoch (UTC): 07 December 2023 03:12:09
Eccentricity: 0.0031735
inclination: 98.8429°
perigee height: 808 km
apogee height: 854 km
right ascension of ascending node: 32.5052°
argument of perigee: 39.7943°
revolutions per day: 14.18350838
mean anomaly at epoch: 18.7454°
orbit number at epoch: 81552

The dashed part of the orbit path shows where the satellite is in the earth's shadow,  

DLR